Spokane, WA

8:54 AM PDT on August 17, 2017 (GMT -0700)
Spokane International

Weather History for KGEG - December, 2013

Change the Weather History Date:

Monday, December 2, 2013

  Actual Average Record
Temperature  
Mean Temperature 35 °F 30 °F  
Max Temperature 43 °F 34 °F 56 °F (1927)
Min Temperature 26 °F 25 °F 4 °F (1919)
Degree Days  
Heating Degree Days 30 35  
Month to date heating degree days 56 70  
Since 1 July heating degree days 1711 1737  
Cooling Degree Days 0 0  
Month to date cooling degree days 0 0  
Year to date cooling degree days 709 450  
Moisture  
Dew Point 24 °F    
Average Humidity 72    
Maximum Humidity 92    
Minimum Humidity 52    
Precipitation  
Precipitation T in 0.08 in 0.97 in (1941)
Month to date precipitation 0.22 0.17  
Year to date precipitation 10.90 14.43  
Snow  
Snow T in 0.40 in 6.00 in (1922)
Month to date snowfall T 0.8  
Since 1 July snowfall 3.1 8.3  
Snow Depth T in    
Sea Level Pressure  
Sea Level Pressure 29.75 in    
Wind  
Wind Speed 15 mph (WSW)    
Max Wind Speed 30 mph    
Max Gust Speed 37 mph    
Visibility 10 miles    
Events Snow    
T = Trace of Precipitation, MM = Missing Value Source: NWS Daily Summary

Daily Weather History Graph

Daily Weather History Graph

Search for Another Location

Airport or City:

Trip Planner

Search our weather history database for the weather conditions in past years. The results will help you decide how hot, cold, wet, or windy it might be!

Date:

Astronomy

Dec. 02, 2013 Rise Set
Actual Time 7:19 AM PST 4:00 PM PST
Civil Twilight 6:43 AM PST 4:35 PM PST
Nautical Twilight 6:05 AM PST 5:14 PM PST
Astronomical Twilight 5:27 AM PST 5:51 PM PST
Moon 6:46 AM PST (12/2) 4:09 PM PST (12/2)
Length of Visible Light 9h 51m
Length of Day
8h 41m
Waning Crescent, 0% of the Moon is Illuminated
Dec 2
Waning Crescent
Dec 2
New
Dec 9
First Quarter
Dec 17
Full
Dec 25
Last Quarter

Hourly Weather History & Observations

Time (PST) Temp. Windchill Dew Point Humidity Pressure Visibility Wind Dir Wind Speed Gust Speed Precip Events Conditions
12:53 AM 42.1 °F 32.6 °F 37.9 °F 85% 29.60 in 10.0 mi SW 23.0 mph 29.9 mph N/A   Scattered Clouds
1:53 AM 42.1 °F 32.8 °F 37.0 °F 82% 29.60 in 10.0 mi SW 21.9 mph - N/A   Scattered Clouds
2:53 AM 39.9 °F 30.0 °F 33.1 °F 77% 29.59 in 10.0 mi SW 21.9 mph - N/A   Scattered Clouds
3:53 AM 37.9 °F 26.8 °F 27.0 °F 65% 29.60 in 10.0 mi WSW 24.2 mph 34.5 mph N/A   Scattered Clouds
4:53 AM 35.1 °F 24.1 °F 26.1 °F 70% 29.61 in 10.0 mi SW 19.6 mph - N/A   Scattered Clouds
5:53 AM 34.0 °F 21.8 °F 25.0 °F 70% 29.62 in 10.0 mi WSW 23.0 mph 31.1 mph N/A   Scattered Clouds
6:53 AM 32.0 °F 20.1 °F 23.0 °F 69% 29.64 in 10.0 mi WSW 19.6 mph - N/A   Scattered Clouds
7:53 AM 32.0 °F 20.1 °F 23.0 °F 69% 29.66 in 10.0 mi West 19.6 mph - N/A   Mostly Cloudy
8:53 AM 32.0 °F 21.2 °F 23.0 °F 69% 29.67 in 10.0 mi WSW 16.1 mph - N/A   Mostly Cloudy
9:53 AM 32.0 °F 20.8 °F 21.9 °F 66% 29.69 in 10.0 mi WSW 17.3 mph - N/A   Mostly Cloudy
10:53 AM 33.1 °F 23.0 °F 21.9 °F 64% 29.70 in 10.0 mi WSW 15.0 mph - N/A   Mostly Cloudy
11:53 AM 34.0 °F 22.1 °F 21.0 °F 59% 29.70 in 10.0 mi West 21.9 mph 25.3 mph N/A   Mostly Cloudy
12:53 PM 35.1 °F 24.8 °F 19.9 °F 54% 29.70 in 10.0 mi WSW 17.3 mph 26.5 mph N/A   Mostly Cloudy
1:53 PM 33.1 °F 24.9 °F 19.9 °F 59% 29.71 in 10.0 mi WSW 10.4 mph - N/A   Mostly Cloudy
2:53 PM 34.0 °F 26.0 °F 19.0 °F 54% 29.73 in 10.0 mi West 10.4 mph - N/A   Mostly Cloudy
3:53 PM 30.0 °F 23.2 °F 19.9 °F 66% 29.77 in 10.0 mi WSW 6.9 mph - N/A   Mostly Cloudy
4:53 PM 28.9 °F 22.8 °F 21.0 °F 72% 29.79 in 10.0 mi WSW 5.8 mph - N/A   Mostly Cloudy
5:53 PM 28.0 °F 20.8 °F 21.9 °F 78% 29.81 in 10.0 mi West 6.9 mph - N/A   Mostly Cloudy
6:53 PM 27.0 °F 19.5 °F 23.0 °F 85% 29.84 in 10.0 mi West 6.9 mph - N/A   Mostly Cloudy
7:53 PM 27.0 °F 21.6 °F 24.1 °F 89% 29.86 in 10.0 mi WSW 4.6 mph - N/A   Mostly Cloudy
8:53 PM 26.1 °F 21.9 °F 23.0 °F 88% 29.89 in 10.0 mi West 3.5 mph - N/A   Overcast
9:14 PM 28.4 °F - 24.8 °F 86% 29.84 in 10.0 mi Calm Calm - N/A   Overcast
9:46 PM 28.4 °F 19.7 °F 24.8 °F 86% 29.85 in 10.0 mi ENE 9.2 mph - N/A   Overcast
9:53 PM 28.0 °F 20.0 °F 23.0 °F 81% 29.92 in 10.0 mi East 8.1 mph - N/A   Overcast
10:12 PM 28.4 °F 19.1 °F 23.0 °F 80% 29.87 in 10.0 mi East 10.4 mph - N/A   Overcast
10:18 PM 28.4 °F 18.0 °F 23.0 °F 80% 29.87 in 10.0 mi ENE 12.7 mph - N/A   Overcast
10:53 PM 28.0 °F 18.1 °F 21.9 °F 78% 29.95 in 9.0 mi ENE 11.5 mph - 0.00 in Snow Light Snow
11:53 PM 26.1 °F 13.6 °F 19.0 °F 75% 29.98 in 9.0 mi NE 16.1 mph - 0.00 in Snow Light Snow